Palacios, TX

5:52 PM CDT on September 28, 2016 (GMT -0500)
Palacios Municipal

Weather History for KPSX - September, 2011

Change the Weather History Date:

Wednesday, September 14, 2011

  Actual Average Record
Temperature  
Mean Temperature 86 °F -  
Max Temperature 90 °F 88 °F 94 °F (1954)
Min Temperature 82 °F 72 °F 58 °F (1945)
Cooling Degree Days 20    
Growing Degree Days 36 (Base 50)    
Moisture  
Dew Point 73 °F    
Average Humidity 68    
Maximum Humidity 84    
Minimum Humidity 53    
Precipitation  
Precipitation 0.00 in - - ()
Sea Level Pressure  
Sea Level Pressure 29.94 in    
Wind  
Wind Speed 11 mph (South)    
Max Wind Speed 14 mph    
Max Gust Speed 20 mph    
Visibility 10 miles    
Events      
Averages and records for this station are not official NWS values.
T = Trace of Precipitation, MM = Missing Value Source: NWS Daily Summary

Daily Weather History Graph

Daily Weather History Graph

Search for Another Location

Airport or City:

Trip Planner

Search our weather history database for the weather conditions in past years. The results will help you decide how hot, cold, wet, or windy it might be!

Date:

Astronomy

Sep. 14, 2011 Rise Set
Actual Time 7:09 AM CDT 7:31 PM CDT
Civil Twilight 6:45 AM CDT 7:55 PM CDT
Nautical Twilight 6:17 AM CDT 8:22 PM CDT
Astronomical Twilight 5:49 AM CDT 8:50 PM CDT
Moon 8:35 PM CDT (9/14) 9:04 AM CDT (9/14)
Length of Visible Light 13h 09m
Length of Day
12h 22m
Waning Gibbous, 95% of the Moon is Illuminated
Sep 14
Waning Gibbous
Sep 20
Last Quarter
Sep 27
New
Oct 3
First Quarter
Oct 11
Full

Hourly Weather History & Observations

Time (CDT) Temp. Heat Index Dew Point Humidity Pressure Visibility Wind Dir Wind Speed Gust Speed Precip Events Conditions
12:53 AM 82.4 °F 90.9 °F 77.0 °F 84% 29.94 in 10.0 mi South 12.7 mph - N/A   Clear
1:53 AM 82.9 °F 91.8 °F 77.0 °F 82% 29.94 in 10.0 mi South 10.4 mph - N/A   Clear
2:53 AM 82.9 °F 91.8 °F 77.0 °F 82% 29.94 in 10.0 mi South 12.7 mph - N/A   Clear
3:53 AM 82.9 °F 90.8 °F 75.9 °F 79% 29.92 in 10.0 mi South 11.5 mph 18.4 mph N/A   Clear
4:53 AM 82.4 °F 89.5 °F 75.2 °F 79% 29.91 in 10.0 mi South 10.4 mph - N/A   Clear
6:53 AM 82.0 °F 88.6 °F 75.0 °F 79% 29.93 in 10.0 mi SSW 9.2 mph - N/A   Clear
7:53 AM 82.0 °F 88.6 °F 75.0 °F 79% 29.94 in 10.0 mi SSW 6.9 mph - N/A   Clear
8:53 AM 84.0 °F 92.6 °F 75.9 °F 76% 29.95 in 10.0 mi SSW 6.9 mph - N/A   Clear
9:53 AM 84.9 °F 93.3 °F 75.0 °F 72% 29.96 in 10.0 mi SSW 10.4 mph - N/A   Clear
10:53 AM 86.0 °F 93.0 °F 73.0 °F 65% 29.96 in 10.0 mi South 10.4 mph - N/A   Clear
11:53 AM 87.1 °F 95.4 °F 73.9 °F 65% 29.96 in 10.0 mi South 9.2 mph - N/A   Clear
12:53 PM 89.1 °F 96.0 °F 72.0 °F 57% 29.96 in 10.0 mi SSE 11.5 mph - N/A   Clear
1:53 PM 89.1 °F 96.0 °F 72.0 °F 57% 29.94 in 10.0 mi South 8.1 mph 18.4 mph N/A   Clear
2:53 PM 89.1 °F 97.0 °F 73.0 °F 59% 29.94 in 10.0 mi SSW 12.7 mph - N/A   Clear
3:53 PM 89.6 °F 96.2 °F 71.6 °F 55% 29.92 in 10.0 mi South 12.7 mph 19.6 mph N/A   Clear
4:53 PM 89.1 °F 94.1 °F 70.0 °F 53% 29.91 in 10.0 mi SSE 13.8 mph - N/A   Clear
5:53 PM 88.0 °F 94.7 °F 72.0 °F 59% 29.91 in 10.0 mi SSE 11.5 mph - N/A   Clear
6:53 PM 86.0 °F 90.7 °F 70.0 °F 59% 29.91 in 10.0 mi SSE 12.7 mph - N/A   Clear
7:53 PM 82.9 °F 86.5 °F 69.1 °F 63% 29.92 in 10.0 mi SE 10.4 mph - N/A   Clear
8:53 PM 82.9 °F 87.0 °F 70.0 °F 65% 29.93 in 10.0 mi SE 10.4 mph - N/A   Clear
9:53 PM 82.0 °F 85.9 °F 70.0 °F 67% 29.94 in 10.0 mi SSE 10.4 mph - N/A   Clear
10:53 PM 82.4 °F 86.3 °F 69.8 °F 66% 29.95 in 10.0 mi SSE 11.5 mph - N/A   Clear
11:53 PM 82.0 °F 86.3 °F 71.1 °F 69% 29.95 in 10.0 mi SSE 10.4 mph - N/A   Clear